Regional Weather Roundup
Issued by NWS

Home | Current Version | Previous Version | Graphics & Text | Print | Product List | Glossary On
Versions: 1 2 3 4 5 6 7 8 9 10 11 12 13 14 15 16 17 18 19 20 21 22 23 24 25 26 27 28 29 30 31 32 33 34 35 36 37 38 39 40 41 42 43 44 45 46 47 48 49 50
000
ASUS43 KOAX 281310
RWRNE

WEATHER ROUNDUP FOR NEBRASKA
NATIONAL WEATHER SERVICE OMAHA NE
800 AM CDT WED JUN 28 2017

NOTES: SATELLITE DATA IS BEING USED TO AUGMENT CLOUD COVER ABOVE
       12000 FEET.
       "FAIR" INDICATES FEW OR NO CLOUDS BELOW 12,000 FEET WITH NO
       SIGNIFICANT WEATHER AND/OR OBSTRUCTIONS TO VISIBILITY.

  * THESE STATIONS DO NOT REPORT WEATHER SUCH AS RAIN...SNOW OR FOG.

NEZ001>004-019>022-054>056-281400-
NEBRASKA PANHANDLE

CITY           SKY/WX    TMP DP  RH WIND       PRES   REMARKS
SCOTTSBLUFF    SUNNY     58  48  69 NW5       29.90R
ALLIANCE       SUNNY     57  51  80 NW9       29.86R
CHADRON        SUNNY     61  51  70 SW5       29.83S
GORDON         FAIR      60  53  77 W9        29.82S
KIMBALL        SUNNY     60  46  59 NW7       29.94S
SIDNEY         SUNNY     60  47  61 NW13      29.90S
$$

NEZ057>060-069>072-079>082-281400-
SOUTHWEST NEBRASKA

CITY           SKY/WX    TMP DP  RH WIND       PRES   REMARKS
NORTH PLATTE   SUNNY     63  59  87 W6        29.78R
IMPERIAL       SUNNY     64  51  62 NW18G25   29.82R
LEXINGTON      SUNNY     69  63  82 W6        29.76R
MCCOOK         SUNNY     69  62  78 SW12      29.78R
OGALLALA       SUNNY     64  55  72 W7        29.83S
$$

NEZ005>010-023>029-035>040-094-281400-
NORTH CENTRAL NEBRASKA

CITY           SKY/WX    TMP DP  RH WIND       PRES   REMARKS
VALENTINE      SUNNY     67  52  58 NW12      29.74R
AINSWORTH      SUNNY     65  57  76 W13       29.74R
BROKEN BOW     SUNNY     65  59  81 W5        29.75R
O`NEILL        SUNNY     65  60  83 SW7       29.70R
ORD            SUNNY     66  59  78 S5        29.72S
THEDFORD       SUNNY     65  56  74 W13       29.79R
$$

NEZ041-046>049-061>064-073>077-083>087-281400-
SOUTH CENTRAL NEBRASKA

CITY           SKY/WX    TMP DP  RH WIND       PRES   REMARKS
GRAND ISLAND   SUNNY     71  67  87 S10       29.74R
AURORA         SUNNY     72  68  86 S9        29.73R
HASTINGS       SUNNY     73  63  70 S7        29.76R
HEBRON         CLOUDY    75  68  78 S7        29.75R
HOLDREGE       MOSUNNY   69  61  75 W8        29.76R
KEARNEY *      SUNNY     68  63  83 CALM      29.76R
YORK           MOSUNNY   72  68  88 S10       29.73S
$$

NEZ011>018-030>034-042>045-281400-
NORTHEAST NEBRASKA

CITY           SKY/WX    TMP DP  RH WIND       PRES   REMARKS
NORFOLK        CLOUDY    68  63  84 SE3       29.70R
ALBION         CLOUDY    69  63  82 CALM      29.71S
BLAIR          CLOUDY    70  65  85 S21G29    29.72R
FREMONT        CLOUDY    69  66  91 S20G25    29.72R
TEKAMAH        CLOUDY    69  65  86 S15       29.70R
WAYNE          PTSUNNY   68  67  99 SW10      29.69F
$$

NEZ050>053-065>068-078-088>093-281400-
SOUTHEAST NEBRASKA

CITY           SKY/WX    TMP DP  RH WIND       PRES   REMARKS
LINCOLN        CLOUDY    72  68  87 S13       29.74R
OMAHA EPPLEY   CLOUDY    69  63  81 S17       29.72R
BEATRICE       CLOUDY    74  69  85 S12       29.75R
FALLS CITY     CLOUDY    67  66  97 SE14G25   29.76F
NEBRASKA CITY  CLOUDY    67  67 100 S12       29.77F
PLATTSMOUTH    CLOUDY    66  64  91 S12       29.76R
$$

NEZ044-045-051>053-067-281400-
OMAHA AREA

CITY           SKY/WX    TMP DP  RH WIND       PRES   REMARKS
OMAHA EPPLEY   CLOUDY    69  63  81 S17       29.72R
BLAIR          CLOUDY    70  65  85 S21G29    29.72R
FREMONT        CLOUDY    69  66  91 S20G25    29.72R
MILLARD        CLOUDY    72  67  84 SE12G18   29.75R
OFFUTT AFB     CLOUDY    68  63  84 S12       29.75R
PLATTSMOUTH    CLOUDY    66  64  91 S12       29.76R
WAHOO          FAIR      69  66  93 S15G21    29.73R
$$




USA.gov is the U.S. government's official web portal to all federal, state and local government web resources and services.